Weather in Paama

Vanuatu     16°28′34″S   168°14′11″E
temp.,
°C
wind,
m/s
gust,
m/s
humid.,
%
clouds,
%
prec.,
mm/h
press.,
hPa
HPBL,
m
26 february, fri
fri2623:00+28ese887757 0.6 1006928
02:00+28se677992 0.1 1004866
05:00+28se787993 0.6 1004869
08:00+28ese897998 0.7 1006909
11:00+28ese787785 1.0 1005964
14:00+28ese677786 0.2 1003918
17:00+28ese787879 0.5 1003893
20:00+28ese787898 1.1 1006879
27 february, sat
sat2723:00+28ese787599 3.3 1006926
02:00+28ese6777100 1.6 1004873
05:00+28ese787989 3.3 1004828
08:00+28ese787991 2.2 1006846
11:00+28e787993 3.0 1006881
14:00+28ese787999 0.8 1004879
17:00+28ese7878100 1.7 1003891
20:00+28ese8979100 0.1 1005970
28 february, sun
sun2823:00+28ese81080100 1.6 1006957
02:00+28ese91077100 0.4 10041020
05:00+28ese7978100 1.4 1005985
08:00+28e7878100 0.3 10061028
11:00+28e787799 0.4 10061022
14:00+28e787781 0.2 1004875
17:00+28e787587 0.3 1004728
20:00+28e8979100 0.1 1006922
1 march, mon
mon123:00+28e91081100 0.6 1006928
02:00+28ese91080100 1.5 1004900
05:00+28e91082100 2.6 1003910
08:00+28e898499 1.2 1005684
11:00+28e6679100 3.1 1004587
14:00+29ene667797 3.3 1002823
17:00+29ene567799 4.6 1001776
20:00+29e5679100 0.8 1003651
2 march, tue
tue223:00+29e5677100 2.6 1003623
02:00+28e7879100 1.1 1001758
05:00+29e7779100 1.2 1001792
08:00+29e677999 0.3 1003784
11:00+29ene457799 0.4 1001720
14:00+29ne6779100 0.8 1000738
17:00+29ne6781100 1.9 999637
20:00+29n5682100 1.4 1001435